User: anonymous   Login
Location: Unspecified
(0.0000°N, 0.0000°E)
Time: 00:19:51
(UTC+00:00)
Language:

GEOS 3 - Orbit

View from above orbital plane
View from above orbital plane
View from above satellite
View from above satellite

Ground track
Ground track

The orbit data is extracted from the following two-line orbital elements,

1  7734U 75027A   21023.54421833 -.00000152  00000-0  11481-4 0  9998
2  7734 114.9877 274.4847 0026122 287.6764  72.1463 14.18666529369930
Epoch (UTC): 23 January 2021 13:03:40
Eccentricity: 0.0026122
inclination: 114.9877°
perigee height: 811 km
apogee height: 848 km
right ascension of ascending node: 274.4847°
argument of perigee: 287.6764°
revolutions per day: 14.18666529
mean anomaly at epoch: 72.1463°
orbit number at epoch: 36993

The dashed part of the orbit path shows where the satellite is in the earth's shadow,  

DLR